Vorticity
12 7 10 16 17 7 3 25 20 9 17 15 5 10 21 12 31 13 17 10 15 -19
-2 9 15 22 12 4 11 12 14 23 11 23 4 29 27 18 28 20 6 17 7 17
10 10 8 27 22 9 5 6 13 2 9 18 23 26 35 29 20 18 12 13 15 1
10 11 11 29 14 10 27 14 51 16 9 21 30 29 18 24 21 29 21 10 7 20
6 11 21 20 0 9 27 -10 23 29 9 -8 52 13 12 18 12 32 20 27 11 5
7 11 23 15 -16 -3 16 17 9 50 -2 36 32 7 6 12 34 5 22 40 16 8
13 11 21 19 18 15 9 1 15 37 49 25 18 16 -6 -11 -3 24 14 18 16 19
6 8 7 12 8 16 6 -0 16 16 34 35 18 12 34 33 -17 6 34 3 18 6
5 7 26 3 -1 17 15 28 12 5 65 -13 12 15 -11 -18 2 17 -15 18 -1 -23
8 5 15 16 18 -6 10 24 17 8 36 37 0 3 -9 13 22 12 16 -19 -5 7
15 15 18 11 15 18 4 14 32 -0 17 33 12 22 21 12 8 12 -1 7 37 13
-0 7 5 -9 12 9 21 7 16 36 32 83 3 -19 9 13 -25 15 41 15 10 6
18 12 3 9 -7 -2 2 15 16 14 18 21 43 69 67 61 55 38 39 40 56 47
20 1 13 8 11 4 12 7 3 2 5 5 0 2 3 -0 7 5 5 4 4 6
Height
5629 5628 5626 5624 5622 5621 5619 5617 5614 5613 5612 5614 5616 5620 5624 5631 5640 5651 5659 5671 5681 5689
5617 5616 5613 5612 5610 5609 5606 5602 5599 5597 5597 5596 5598 5601 5605 5613 5622 5634 5645 5656 5666 5677
5606 5603 5602 5598 5597 5597 5594 5590 5587 5585 5584 5582 5582 5584 5589 5598 5607 5620 5631 5642 5653 5660
5596 5593 5591 5588 5586 5586 5582 5578 5571 5570 5571 5569 5569 5574 5580 5589 5599 5608 5619 5632 5641 5651
5586 5584 5581 5579 5578 5577 5572 5567 5564 5560 5558 5558 5559 5566 5575 5583 5592 5599 5610 5622 5630 5640
5578 5575 5572 5571 5571 5568 5565 5561 5555 5550 5549 5550 5553 5561 5569 5574 5583 5591 5602 5611 5623 5633
5571 5567 5564 5563 5562 5560 5559 5555 5548 5541 5542 5543 5548 5555 5561 5567 5578 5586 5595 5605 5615 5626
5563 5561 5559 5557 5555 5554 5552 5549 5544 5538 5538 5540 5545 5552 5560 5566 5575 5582 5588 5599 5610 5619
5557 5555 5554 5553 5551 5550 5548 5544 5541 5536 5534 5537 5542 5550 5556 5564 5573 5579 5586 5595 5601 5609
5551 5550 5550 5549 5548 5547 5545 5542 5538 5535 5531 5533 5540 5546 5553 5561 5568 5575 5583 5590 5595 5602
5546 5547 5546 5546 5545 5545 5543 5541 5537 5534 5530 5532 5539 5544 5552 5560 5566 5574 5580 5586 5592 5596
5540 5542 5543 5543 5544 5544 5543 5541 5538 5534 5532 5532 5536 5544 5550 5557 5562 5566 5570 5574 5577 5582
5534 5536 5538 5540 5542 5543 5543 5542 5541 5540 5540 5538 5539 5543 5550 5555 5559 5563 5565 5568 5571 5576
5529 5531 5533 5536 5538 5540 5541 5542 5542 5542 5544 5545 5548 5550 5553 5556 5557 5561 5564 5568 5572 5576